Location: PSU-Greenbush Astrophysical Observatory
(37.5140°N, 94.9880°W)
Time: 09:22:36
(UTC-06:00)

Altair - Pass Details

Date: 31 January 2020
Orbit: 1502 x 1682 km, 47.2° (Epoch: 25 February)

Event Time Altitude Azimuth Distance (km) Brightness Sun altitude
Rises 05:05:48 0° 197° (SSW) 4,764 9.9 -27.7°
Reaches altitude 10° 05:09:15 10° 188° (S) 3,809 9.5 -27.0°
Maximum altitude 05:17:35 33° 129° (SE) 2,500 9.0 -25.4°
Drops below altitude 10° 05:26:07 10° 71° (ENE) 3,926 10.5 -23.7°
Sets 05:29:42 0° 62° (ENE) 4,929 11.1 -23.0°
